Terminal Aerodrome Forecast
Issued by NWS

Home | Current Version | Previous Version | Text Only | Print | Product List | Glossary On
Versions: 1 2 3 4 5 6 7 8 9 10 11 12 13 14 15 16 17
000
FTAK31 PAJN 312340
TAFAJN
TAF
PAJN 312340Z 0100/0124 24003KT P6SM VCSH BKN035 OVC050
      TEMPO 0100/0103 4SM -SHRA BR SCT010 BKN030 OVC040
     FM010600 VRB05KT P6SM VCSH SCT010 BKN050
     FM011600 24006KT P6SM VCSH SCT025 BKN040 BKN060=

USA.gov is the U.S. government's official web portal to all federal, state and local government web resources and services.